Tracking 25710 objects as of 5-Jul-2022
HD Live streaming from Space Station
objects crossing your sky now

FENGYUN 1C DEB

Track FENGYUN 1C DEB now!
10-day predictions


NORAD ID: 29871
Int'l Code: 1999-025FR
Perigee: 743.3 km
Apogee: 840.9 km
Inclination: 99.0 °
Period: 100.6 minutes
Semi major axis: 7163 km
RCS: 0.051 m2 (small)
Launch date: May 10, 1999
Source: People's Republic of China (PRC)
Launch site: Taiyaun Space Center, China (TSC)

Note: This is SATELLITE DEBRIS
aabbcc
Your satellite tracking list
Your tracking list is empty




NASA's NSSDC Master Catalog

Two Line Element Set (TLE):
1 29871U 99025FR  22185.65817352  .00000616  00000-0  24091-3 0  9999
2 29871  98.9666  74.8030 0068097 201.6657 212.9696 14.32023420806552
Source of the keplerian elements: AFSPC